Location: Brahman Valley
(40.6513°N, 111.8855°W)
Time: 21:00:12
(UTC+00:00)

Vanguard 2 - Pass Details

Date: 17 May 2021
Orbit: 552 x 2937 km, 32.9° (Epoch: 14 June)

Event Time Altitude Azimuth Distance (km) Brightness Sun altitude
Rises 13:07:29 0° 252° (WSW) 4,143 10.6 9.5°
Reaches altitude 10° 13:09:54 10° 248° (WSW) 3,432 10.3 10.0°
Maximum altitude 13:18:52 58° 172° (S) 2,172 10.0 11.6°
Drops below altitude 10° 13:33:25 10° 99° (E) 5,369 13.4 14.3°
Sets 13:38:14 0° 96° (E) 6,596 13.7 15.2°
